Regional Weather Roundup
Issued by NWS

Home | Current Version | Previous Version | Graphics & Text | Print | Product List | Glossary On
Versions: 1 2 3 4 5 6 7 8 9 10 11 12 13 14 15 16 17 18 19 20 21 22 23 24 25 26 27 28 29 30 31 32 33 34 35 36 37 38 39 40 41 42 43 44 45 46 47 48 49 50
000
ASUS43 KTOP 240408
RWRKS

WEATHER ROUNDUP FOR KANSAS
NATIONAL WEATHER SERVICE GOODLAND KS
1100 PM CDT SUN JUL 23 2017

NOTE:  "FAIR" INDICATES FEW OR NO CLOUDS BELOW 12,000 FEET WITH NO
SIGNIFICANT WEATHER AND/OR OBSTRUCTIONS TO VISIBILITY.

KSZ001>006-013>018-027>032-041>047-240500-
NORTHWEST KANSAS

CITY           SKY/WX    TMP DP  RH WIND       PRES   REMARKS
GOODLAND       CLEAR     69  55  60 S9        30.09R
HAYS             N/A     76  61  59 SE7       30.00R
HILL CITY      CLEAR     75  62  64 E5        30.02R
RUSSELL        CLEAR     80  60  50 SE8       29.98R
$$

KSZ061>065-074>080-084>089-240500-
SOUTHWEST KANSAS

CITY           SKY/WX    TMP DP  RH WIND       PRES   REMARKS
DODGE CITY     CLEAR     75  64  68 SE6       30.04R
ELKHART          N/A     74  54  49 E8          N/A
GARDEN CITY    CLEAR     75  60  59 SE9       30.05R
LIBERAL        CLEAR     80  65  59 E12       30.05R
PRATT          CLEAR     77  63  61 E5        30.00R
$$

KSZ066>073-081>083-090>101-240500-
SOUTHEAST KANSAS

CITY           SKY/WX    TMP DP  RH WIND       PRES   REMARKS
CHANUTE        CLEAR     77  72  84 CALM      29.94R
COFFEYVILLE    PTCLDY    78  73  84 CALM      29.92S HAZE
HUTCHINSON     CLEAR     73  69  87 CALM      29.96S
MEDICINE LODGE   N/A     84  63  49 E3        29.96R
NEWTON         CLEAR     79  73  82 SE6       29.98R
PARSONS        PTCLDY    74  72  93 CALM      29.94S
WICHITA INTL   PTCLDY    81  71  71 CALM      29.95R
WICHITA JABRA  CLEAR     77  71  82 E3        29.96R
WICHITA MCCONL CLEAR     83  68  59 SE6       29.96R
WINFIELD       CLEAR     82  69  64 E6        29.96R
$$

KSZ007>012-019>026-033>040-048>060-102>105-240500-
NORTHEAST KANSAS

CITY           SKY/WX    TMP DP  RH WIND       PRES   REMARKS
CONCORDIA      CLEAR     77  70  79 NE3       29.99R
EMPORIA        CLEAR     78  73  84 S3        29.95R
LAWRENCE       PTCLDY    81  76  84 NE5       29.94R
MANHATTAN      PTCLDY    83  70  64 N7        29.95R
MARYSVILLE     CLEAR     73  64  73 NE5       29.98R
OLATHE IND     PTCLDY    83  75  77 CALM      29.95R
OLATHE EXE     PTCLDY    80  77  90 CALM      29.95R
SALINA         CLEAR     78  69  73 CALM      29.95R
TOPEKA BILLARD PTCLDY    82  76  81 N7        29.94R
TOPEKA FORBES  PTCLDY    81  77  88 N3        29.95R
$$




USA.gov is the U.S. government's official web portal to all federal, state and local government web resources and services.